Change the Weather History Date:

Sunday, February 9, 2014

  Actual Average Record
Temperature  
Mean Temperature 27 °F -  
Max Temperature 31 °F 31 °F 51 °F (1987)
Min Temperature 22 °F 4 °F -20 °F (2011)
Degree Days  
Heating Degree Days 38 48  
Month to date heating degree days 477 432  
Since 1 July heating degree days 6716 6829  
Cooling Degree Days 0 0  
Month to date cooling degree days 0 0  
Year to date cooling degree days 0 0  
Moisture  
Dew Point 22 °F    
Average Humidity 80    
Maximum Humidity 96    
Minimum Humidity 63    
Precipitation  
Precipitation 0.23 in 0.03 in 0.23 in (2014)
Month to date precipitation 0.53 0.21  
Year to date precipitation 3.49 0.83  
Sea Level Pressure  
Sea Level Pressure 29.92 in    
Wind  
Wind Speed 10 mph (NW)    
Max Wind Speed 25 mph    
Max Gust Speed 35 mph    
Visibility 4 miles    
Events Fog , Snow    
T = Trace of Precipitation, MM = Missing Value Source: NWS Daily Summary

Daily Weather History Graph

Daily Weather History Graph

Search for Another Location

Airport or City:

Trip Planner

Search our weather history database for the weather conditions in past years. The results will help you decide how hot, cold, wet, or windy it might be!

Date:

Astronomy

Feb. 09, 2014 Rise Set
Actual Time 7:03 AM MST 5:35 PM MST
Civil Twilight 6:36 AM MST 6:03 PM MST
Nautical Twilight 6:04 AM MST 6:34 PM MST
Astronomical Twilight 5:33 AM MST 7:06 PM MST
Moon 1:18 PM MST (2/9) 3:10 AM MST (2/9)
Length of Visible Light 11h 27m
Length of Day
10h 31m
Waxing Gibbous, 77% of the Moon is Illuminated
Feb 9
Waxing Gibbous
Feb 14
Full
Feb 22
Last Quarter
Mar 1
New
Mar 8
First Quarter

Hourly Weather History & Observations

Time (MST) Temp. Windchill Dew Point Humidity Pressure Visibility Wind Dir Wind Speed Gust Speed Precip Events Conditions
12:13 AM 24.1 °F 18.2 °F 21.0 °F 88% 29.98 in 1.5 mi SSE 4.6 mph - 0.01 in Snow Light Snow
12:48 AM 23.0 °F - 21.2 °F 93% 29.96 in 1.0 mi Calm Calm - 0.03 in Snow Light Snow
12:53 AM 23.0 °F - 21.0 °F 92% 29.86 in 0.8 mi Calm Calm - 0.04 in Snow Light Snow
1:11 AM 23.0 °F - 21.0 °F 92% 29.96 in 1.2 mi Calm Calm - 0.01 in Snow Light Snow
1:23 AM 23.0 °F 18.4 °F 21.0 °F 92% 29.96 in 2.5 mi East 3.5 mph - 0.01 in Snow Light Snow
1:39 AM 23.0 °F - 21.0 °F 92% 29.96 in 1.5 mi Calm Calm - 0.02 in Snow Light Snow
1:53 AM 23.0 °F 18.4 °F 21.0 °F 92% 29.85 in 1.2 mi NNE 3.5 mph - 0.02 in Snow Light Snow
2:20 AM 24.1 °F 17.0 °F 21.0 °F 88% 29.95 in 2.5 mi East 5.8 mph - 0.00 in Snow Light Snow
2:27 AM 24.1 °F 16.0 °F 21.0 °F 88% 29.94 in 5.0 mi ESE 6.9 mph - 0.01 in Snow Light Snow
2:53 AM 24.1 °F 16.0 °F 21.0 °F 88% 29.85 in 2.5 mi NNE 6.9 mph - 0.01 in Snow Light Snow
3:11 AM 25.0 °F 14.8 °F 23.0 °F 92% 29.96 in 1.5 mi NNW 10.4 mph - 0.00 in Snow Light Snow
3:53 AM 27.0 °F 16.7 °F 23.0 °F 85% 29.83 in 2.0 mi NW 11.5 mph - 0.01 in Snow Light Snow
4:08 AM 27.0 °F 15.6 °F 23.0 °F 85% 29.97 in 1.8 mi NW 13.8 mph 24.2 mph 0.01 in Snow Light Snow
4:15 AM 27.0 °F 14.3 °F 23.0 °F 85% 29.96 in 2.5 mi WNW 17.3 mph - 0.01 in Snow Light Snow
4:40 AM 27.0 °F 15.2 °F 23.0 °F 85% 29.97 in 1.5 mi NW 15.0 mph 21.9 mph 0.02 in Snow Light Snow
4:49 AM 26.6 °F 13.8 °F 21.2 °F 80% 29.96 in 3.0 mi WNW 17.3 mph 24.2 mph 0.02 in Snow Light Snow
4:50 AM 28.0 °F 16.1 °F 21.9 °F 78% 29.83 in 3.0 mi WNW 16.1 mph 24.2 mph 0.02 in Snow Light Snow
5:00 AM 28.0 °F 17.5 °F 21.9 °F 78% 29.97 in 7.0 mi WNW 12.7 mph 25.3 mph 0.00 in Snow Light Snow
5:53 AM 28.0 °F 14.9 °F 19.9 °F 72% 29.85 in 6.0 mi WNW 19.6 mph 27.6 mph 0.01 in Snow Light Snow
6:53 AM 28.0 °F 17.0 °F 18.0 °F 66% 29.84 in 10.0 mi West 13.8 mph 21.9 mph 0.00 in   Overcast
7:53 AM 28.0 °F 16.1 °F 18.0 °F 66% 29.87 in 10.0 mi WNW 16.1 mph - 0.00 in   Overcast
8:53 AM 28.9 °F 17.7 °F 18.0 °F 64% 29.90 in 10.0 mi WNW 15.0 mph 24.2 mph 0.00 in   Overcast
9:14 AM 28.0 °F 15.3 °F 19.0 °F 69% 30.02 in 2.5 mi West 18.4 mph 28.8 mph 0.00 in Snow Light Snow
9:24 AM 28.9 °F 16.9 °F 19.0 °F 67% 30.02 in 4.0 mi West 17.3 mph - 0.00 in Snow Light Snow
9:53 AM 28.0 °F 18.6 °F 19.9 °F 72% 29.92 in 4.0 mi NW 10.4 mph - 0.00 in Snow Light Snow
10:53 AM 28.9 °F 21.1 °F 21.9 °F 75% 29.89 in 9.0 mi WNW 8.1 mph - 0.00 in   Overcast
11:53 AM 30.0 °F 20.0 °F 21.0 °F 69% 29.86 in 2.5 mi WNW 12.7 mph - 0.00 in Snow Light Snow
12:04 PM 30.0 °F 22.4 °F 21.9 °F 72% 29.99 in 9.0 mi NW 8.1 mph - 0.00 in   Overcast
12:53 PM 30.0 °F 20.5 °F 19.9 °F 66% 29.82 in 7.0 mi West 11.5 mph 19.6 mph 0.00 in Snow Light Snow
1:53 PM 28.9 °F 19.8 °F 21.0 °F 72% 29.80 in 5.0 mi West 10.4 mph - 0.00 in Snow Light Snow
1:56 PM 28.0 °F 19.3 °F 21.9 °F 78% 29.93 in 2.5 mi West 9.2 mph - 0.00 in Snow Light Snow
2:04 PM 28.0 °F 19.3 °F 23.0 °F 81% 29.93 in 0.8 mi West 9.2 mph - 0.00 in Snow Light Snow
2:19 PM 27.0 °F - 24.1 °F 89% 29.93 in 0.5 mi Calm Calm - 0.01 in Fog , Snow Light Snow
2:46 PM 28.0 °F - 25.0 °F 88% 29.94 in 0.5 mi North - - 0.02 in Fog , Snow Snow
2:53 PM 27.0 °F 16.7 °F 24.1 °F 89% 29.81 in 0.2 mi WNW 11.5 mph 23.0 mph 0.03 in Fog , Snow Snow
2:58 PM 27.0 °F 20.5 °F 25.0 °F 92% 29.94 in 0.5 mi NW 5.8 mph - 0.00 in Fog , Snow Snow
3:05 PM 28.0 °F 17.0 °F 24.1 °F 85% 29.94 in 0.8 mi NW 13.8 mph 18.4 mph 0.00 in Snow Light Snow
3:28 PM 28.0 °F - 24.1 °F 85% 29.94 in 1.0 mi Calm Calm - 0.01 in Snow Light Snow
3:53 PM 27.0 °F 21.6 °F 23.0 °F 85% 29.79 in 1.2 mi WSW 4.6 mph - 0.01 in Snow Light Snow
4:19 PM 26.1 °F 17.6 °F 24.1 °F 92% 29.95 in 0.5 mi West 8.1 mph - 0.01 in Fog , Snow Snow
4:31 PM 26.1 °F 17.6 °F 24.1 °F 92% 29.95 in 0.5 mi WNW 8.1 mph - 0.02 in Fog , Snow Snow
4:53 PM 26.1 °F - 23.0 °F 88% 29.81 in 0.8 mi Calm Calm - 0.02 in Snow Light Snow
5:21 PM 26.1 °F 19.4 °F 21.9 °F 84% 29.95 in 1.0 mi West 5.8 mph - 0.02 in Snow Light Snow
5:43 PM 26.1 °F 20.5 °F 23.0 °F 88% 29.96 in 2.5 mi Variable 4.6 mph - 0.02 in Snow Light Snow
5:47 PM 26.6 °F - 23.0 °F 86% 29.96 in 3.0 mi Calm Calm - 0.02 in Snow Light Snow
5:53 PM 26.1 °F - 23.0 °F 88% 29.81 in 4.0 mi Calm Calm - 0.02 in Snow Light Snow
6:07 PM 26.1 °F 20.5 °F 23.0 °F 88% 29.97 in 2.5 mi North 4.6 mph - 0.00 in Snow Light Snow
6:17 PM 26.1 °F 17.6 °F 23.0 °F 88% 29.97 in 1.8 mi North 8.1 mph - 0.01 in Snow Light Snow
6:31 PM 26.1 °F 18.4 °F 23.0 °F 88% 29.97 in 2.0 mi North 6.9 mph - 0.01 in Snow Light Snow
6:48 PM 26.6 °F 16.8 °F 23.0 °F 86% 29.98 in 4.0 mi NNW 10.4 mph - 0.01 in Snow Light Snow
6:53 PM 26.1 °F 15.6 °F 23.0 °F 88% 29.84 in 5.0 mi NNW 11.5 mph - 0.01 in Snow Light Snow
7:53 PM 28.0 °F 16.5 °F 21.0 °F 75% 29.83 in 4.0 mi WNW 15.0 mph 26.5 mph 0.01 in Snow Light Snow
8:46 PM 27.0 °F 16.7 °F 21.9 °F 81% 30.00 in 2.5 mi WNW 11.5 mph 23.0 mph 0.01 in Snow Light Snow
8:53 PM 26.1 °F 14.5 °F 21.9 °F 84% 29.85 in 2.0 mi WNW 13.8 mph - 0.01 in Snow Light Snow
9:00 PM 26.1 °F 15.6 °F 21.9 °F 84% 30.01 in 1.2 mi NW 11.5 mph 23.0 mph 0.01 in Snow Light Snow
9:14 PM 26.1 °F 15.0 °F 21.9 °F 84% 30.00 in 3.0 mi WNW 12.7 mph 23.0 mph 0.01 in Snow Light Snow
9:36 PM 26.1 °F 15.0 °F 19.0 °F 75% 30.00 in 9.0 mi WNW 12.7 mph - 0.01 in   Overcast
9:53 PM 26.1 °F 16.8 °F 19.0 °F 75% 29.87 in 7.0 mi West 9.2 mph - 0.01 in Snow Light Snow
10:46 PM 26.1 °F 12.7 °F 19.0 °F 75% 30.01 in 2.5 mi NW 18.4 mph 27.6 mph 0.01 in Snow Light Snow
10:53 PM 25.0 °F 13.1 °F 21.0 °F 85% 29.87 in 1.2 mi NNW 13.8 mph 27.6 mph 0.01 in Snow Light Snow
10:58 PM 24.1 °F 13.1 °F 21.0 °F 88% 30.01 in 2.0 mi NNW 11.5 mph 24.2 mph 0.00 in Snow Light Snow
11:06 PM 25.0 °F 14.8 °F 21.0 °F 85% 30.01 in 6.0 mi NNW 10.4 mph 19.6 mph 0.00 in Snow Light Snow
11:14 PM 26.1 °F 16.8 °F 18.0 °F 71% 30.01 in 9.0 mi NW 9.2 mph 25.3 mph 0.00 in Snow Light Snow
11:34 PM 24.1 °F 13.7 °F 18.0 °F 77% 30.01 in 9.0 mi WNW 10.4 mph - 0.00 in   Partly Cloudy
11:53 PM 25.0 °F 13.6 °F 16.0 °F 69% 29.85 in 10.0 mi West 12.7 mph - 0.00 in   Partly Cloudy